Showing default

YAOGAN-31 A, 43275

Orbit data source: Space-Track

YAOGAN-31 A, 43275 is a payload satellite owned by PLA SSF (CN) in LEO that was launched on Tue, 10 Apr 2018 UTC via a CHANG ZHENG 4C launch vehicle from the Jiuquan Satellite Launch Center, China (JSC). Payload-class satellites include a variety of spacecraft equipped with specific instruments for various scientific and technological missions. These include communications satellites like Starlink; space stations such as the ISS; scientific satellites like the Hubble; Earth observation satellites from companies like Planet Labs, Umbra, and HawkEye 360; GPS; miniature CubeSats for education and research; and military/defense satellites.

Loading next visibility...
Identifier
43275, 2018-034A
Orbit
LEO
Country
Flag of CNCN / PRC
Related business
Manufacturer
DFH
Mission
Operational Defense Sigint
Bus & Motor
JB-8B, Unknown motor
Mass
~500 kg wet, ~500 kg dry
Launch date (UTC)
2018-04-10 (7 years ago)
Launch vehicle
CHANG ZHENG 4C
Launch site
Jiuquan Satellite Launch Center, China (JSC)
Object type
Payload
Rocket body
Debris
Shape & HBR
Box + 2 Pan, 0.5 m
Radar Cross Section
0.446 m², Large (>1 m²)

Expand to show TLE details & history
Last TLE update: 5 hours ago

TLE from 5 hours ago
0 YAOGAN-31 A
1 43275U 18034A   25258.65558679 -.00000064  00000-0  36402-4 0  9990
2 43275  63.3957  77.5422 0250642   6.6443 353.7804 13.45419708365168
Epoch: 2025-09-15T15:44Z
TLE epoch observation values (Epoch: 2025-09-15T15:44:02.698Z)
Latitude
-0.00005°
Longitude
-153.32618°
Altitude
904.904 km
Speed
7.492 km/s
True Right ascension
05h 10m 10s
True Declination
0° 00' 00"
Sunlit
Object was in daylight at epoch
Visualization orbit readout
Latitude
Unknown
Longitude
Unknown
Altitude
Unknown
Speed
Unknown
Apparent Right ascension
Unknown
Apparent Declination
Unknown
Sunlit
N/A
Visualization observer readout
Local Sidereal Time
13:30:14
Azimuth
Unknown
Elevation
Unknown
Doppler factor
Unknown
Orbital elements
Apogee altitude
1,275.119 km
Perigee altitude
900.855 km
Semi-major axis
7,466.124 km
Eccentricity
0.02506
Inclination
63.3957°
RAAN
77.5422°
Arg. of periapsis
6.6443°
True anomaly
353.45925°
Mean anomaly
353.7804°
Eccentric anomaly
353.62084°
Mean motion
3.36434 °/min
Orbital period
107 mins
BSTAR
0.000036402
Loading maneuver chart data...
Computing Atmospheric mass density...
Loading historical data...
Loading historical data...
Loading historical data...
Loading historical data...
Loading historical data...
Loading historical data...
Loading historical data...

Documentation

Showing up to 5 results
|